ATLAS 5 CENTAUR DEB, 44656

Orbit data source: Space-Track

ATLAS 5 CENTAUR DEB, 44656 is space debris in HEO originally from a launch on Wed, 17 Oct 2018 UTC launched from the Air Force Eastern Test Range (AFETR). Debris objects in space refer to the collection of defunct objects orbiting the Earth. Examples of debris include non-operational satellites, rocket bodies, and fragments generated from explosions, collisions, or faulty payload assembly.

Loading next visibility...
Identifier
44656, 2018-079S
Orbit
HEO
Country
Flag of USUS
Related business
Flag of USUnited Launch Alliance/Lockheed Martin (US)
Manufacturer
ULA Decatur
Mission
Spacecraft
Bus & Motor
Unknown
Mass
Unknown
Launch date (UTC)
2018-10-17 (7 years ago)
Launch vehicle
Unknown
Launch site
Air Force Eastern Test Range (AFETR)
Object type
Payload
Rocket body
Debris
Shape & HBR
Unknown shape, 1.1 m
Radar Cross Section
RCS unknown

Expand to show TLE details & history
Last TLE update: 1 day ago

TLE from 1 day ago
0 ATLAS 5 CENTAUR DEB
1 44656U 18079S   25303.27408904 -.00000066  00000-0  00000-0 0  9990
2 44656  13.5639  46.2021 4625399 286.6671  28.8331  1.83315102 43560
Epoch: 2025-10-30T06:34Z
TLE epoch observation values (Epoch: 2025-10-30T06:34:41.293Z)
Latitude
-0.00001°
Longitude
-91.35333°
Altitude
13,188.881 km
Speed
5.158 km/s
True Right ascension
03h 04m 36s
True Declination
0° 00' 00"
Sunlit
Object was in full shadow at epoch
Visualization orbit readout
Latitude
Unknown
Longitude
Unknown
Altitude
Unknown
Speed
Unknown
Apparent Right ascension
Unknown
Apparent Declination
Unknown
Sunlit
N/A
Visualization observer readout
Local Sidereal Time
07:57:08
Azimuth
Unknown
Elevation
Unknown
Doppler factor
Unknown
Orbital elements
Apogee altitude
34,870.474 km
Perigee altitude
8,780.07 km
Semi-major axis
28,203.409 km
Eccentricity
0.46254
Inclination
13.5639°
RAAN
46.2021°
Arg. of periapsis
286.6671°
True anomaly
73.56568°
Mean anomaly
28.8331°
Eccentric anomaly
48.76158°
Mean motion
0.45824 °/min
Orbital period
785.62 mins
BSTAR
0
Loading maneuver chart data...
Computing Atmospheric mass density...

Documentation

Showing up to 5 results
|